| time (UTC) | temp F | wind direction | speed MPH | gust MPH | rain 1hr in | rain 24hr in | rain mn in | humidity % | barometer mb |
| 20260506042703 | 48 | 118 | 7.0 | 8.0 | 0.01 | 0.01 | 0.01 | 77 | 1013.2 |
| 20260506041803 | 48 | 110 | 8.0 | 10.0 | 0.01 | 0.01 | 0.01 | 75 | 1013.3 |
| 20260506040903 | 49 | 92 | 7.0 | 9.0 | 0.01 | 0.01 | 0.01 | 72 | 1013.7 |
| 20260506040217 | 49 | 103 | 7.0 | 14.0 | 0.01 | 0.01 | 0.01 | 70 | 1013.8 |
| 20260506035614 | 49 | 101 | 6.0 | 14.0 | 0.01 | 0.01 | 0.01 | 70 | 1014.0 |
| 20260506034503 | 50 | 56 | 6.0 | 13.0 | 0.01 | 0.01 | 0.01 | 68 | 1014.4 |
| 20260506033813 | 50 | 47 | 7.0 | 13.0 | 0.01 | 0.01 | 0.01 | 66 | 1014.5 |
| 20260506032703 | 51 | 344 | 16.0 | 24.0 | 0.00 | 0.00 | 0.00 | 64 | 1014.6 |
| 20260506031803 | 53 | 325 | 14.0 | 26.0 | 0.00 | 0.00 | 0.00 | 55 | 1014.1 |
| 20260506030903 | 54 | 337 | 13.0 | 18.0 | 0.00 | 0.00 | 0.00 | 51 | 1013.7 |
| 20260506030213 | 54 | 316 | 11.0 | 19.0 | 0.00 | 0.00 | 0.00 | 49 | 1013.6 |
| 20260506025403 | 53 | 301 | 5.0 | 7.0 | 0.00 | 0.00 | 0.00 | 55 | 1013.7 |
| 20260506024503 | 52 | 315 | 6.0 | 8.0 | 0.00 | 0.00 | 0.00 | 55 | 1013.3 |
| 20260506023603 | 53 | 332 | 7.0 | 10.0 | 0.00 | 0.00 | 0.00 | 54 | 1013.0 |
| 20260506022916 | 53 | 348 | 8.0 | 10.0 | 0.00 | 0.00 | 0.00 | 53 | 1012.8 |
| 20260506022014 | 54 | 8 | 8.0 | 10.0 | 0.00 | 0.00 | 0.00 | 52 | 1012.6 |
| 20260506021116 | 54 | 14 | 11.0 | 18.0 | 0.00 | 0.00 | 0.00 | 51 | 1012.3 |
| 20260506020004 | 54 | 18 | 13.0 | 19.0 | 0.00 | 0.00 | 0.00 | 51 | 1011.9 |
| 20260506015403 | 54 | 14 | 16.0 | 22.0 | 0.00 | 0.00 | 0.00 | 52 | 1011.7 |
| 20260506014712 | 54 | 355 | 15.0 | 22.0 | 0.00 | 0.00 | 0.00 | 51 | 1011.8 |
| 20260506013815 | 54 | 14 | 9.0 | 22.0 | 0.00 | 0.00 | 0.00 | 52 | 1011.5 |
| 20260506012917 | 54 | 331 | 7.0 | 9.0 | 0.00 | 0.00 | 0.00 | 57 | 1011.4 |
| 20260506012014 | 54 | 329 | 6.0 | 8.0 | 0.00 | 0.00 | 0.00 | 58 | 1011.4 |
| 20260506010903 | 54 | 328 | 5.0 | 8.0 | 0.00 | 0.00 | 0.00 | 58 | 1011.4 |
| 20260506010003 | 54 | 325 | 5.0 | 6.0 | 0.00 | 0.00 | 0.00 | 56 | 1011.3 |
| 20260506005615 | 54 | 322 | 5.0 | 8.0 | 0.00 | 0.00 | 0.00 | 56 | 1011.3 |
| 20260506004713 | 55 | 327 | 7.0 | 9.0 | 0.00 | 0.00 | 0.00 | 55 | 1011.4 |
| 20260506003603 | 55 | 329 | 8.0 | 11.0 | 0.00 | 0.00 | 0.00 | 53 | 1011.2 |
| 20260506002703 | 56 | 328 | 10.0 | 14.0 | 0.00 | 0.00 | 0.00 | 53 | 1011.2 |
| 20260506001803 | 55 | 316 | 8.0 | 13.0 | 0.00 | 0.00 | 0.00 | 53 | 1011.4 |
| 20260506000903 | 55 | 331 | 7.0 | 10.0 | 0.00 | 0.00 | 0.00 | 56 | 1011.2 |
| 20260506000215 | 56 | 334 | 9.0 | 12.0 | 0.00 | 0.00 | 0.00 | 53 | 1011.2 |
| 20260505235403 | 55 | 332 | 10.0 | 14.0 | 0.00 | 0.00 | 0.00 | 53 | 1011.1 |
| 20260505234713 | 56 | 335 | 11.0 | 14.0 | 0.00 | 0.00 | 0.00 | 52 | 1011.0 |
| 20260505233603 | 56 | 359 | 12.0 | 17.0 | 0.00 | 0.00 | 0.00 | 51 | 1010.9 |
| 20260505232913 | 56 | 341 | 11.0 | 17.0 | 0.00 | 0.00 | 0.00 | 52 | 1010.6 |
| 20260505232015 | 56 | 8 | 11.0 | 15.0 | 0.00 | 0.00 | 0.00 | 50 | 1010.7 |
| 20260505231113 | 57 | 354 | 11.0 | 15.0 | 0.00 | 0.00 | 0.00 | 48 | 1010.7 |
| 20260505230215 | 56 | 342 | 13.0 | 17.0 | 0.00 | 0.00 | 0.00 | 49 | 1010.8 |
| 20260505225617 | 56 | 337 | 13.0 | 16.0 | 0.00 | 0.00 | 0.00 | 50 | 1010.7 |
| 20260505224714 | 56 | 341 | 13.0 | 17.0 | 0.00 | 0.00 | 0.00 | 48 | 1011.0 |
| 20260505223816 | 56 | 340 | 12.0 | 17.0 | 0.00 | 0.00 | 0.00 | 48 | 1011.0 |
| 20260505222703 | 57 | 12 | 14.0 | 18.0 | 0.00 | 0.00 | 0.00 | 47 | 1010.9 |
| 20260505221803 | 56 | 344 | 13.0 | 18.0 | 0.00 | 0.00 | 0.00 | 49 | 1011.0 |
| 20260505221113 | 56 | 359 | 13.0 | 17.0 | 0.00 | 0.00 | 0.00 | 49 | 1011.2 |
| 20260505220003 | 56 | 353 | 11.0 | 16.0 | 0.00 | 0.00 | 0.00 | 50 | 1011.2 |
| 20260505215403 | 56 | 354 | 12.0 | 15.0 | 0.00 | 0.00 | 0.00 | 51 | 1011.3 |
| 20260505214504 | 56 | 354 | 11.0 | 15.0 | 0.00 | 0.00 | 0.00 | 51 | 1011.4 |
| 20260505213603 | 56 | 346 | 11.0 | 15.0 | 0.00 | 0.00 | 0.00 | 52 | 1011.3 |
| 20260505212914 | 55 | 356 | 10.0 | 14.0 | 0.00 | 0.00 | 0.00 | 53 | 1011.4 |
| 20260505212017 | 55 | 350 | 12.0 | 16.0 | 0.00 | 0.00 | 0.00 | 52 | 1011.5 |
| 20260505210903 | 55 | 7 | 15.0 | 18.0 | 0.00 | 0.00 | 0.00 | 53 | 1011.9 |
| 20260505210216 | 55 | 4 | 15.0 | 20.0 | 0.00 | 0.00 | 0.00 | 54 | 1011.8 |
| 20260505205613 | 55 | 348 | 14.0 | 20.0 | 0.00 | 0.00 | 0.00 | 56 | 1011.8 |
| 20260505204715 | 55 | 333 | 14.0 | 19.0 | 0.00 | 0.00 | 0.00 | 59 | 1011.8 |
| 20260505203813 | 55 | 342 | 14.0 | 18.0 | 0.00 | 0.00 | 0.00 | 60 | 1011.8 |
| 20260505202915 | 55 | 354 | 14.0 | 17.0 | 0.00 | 0.00 | 0.00 | 60 | 1011.7 |
| 20260505202012 | 55 | 6 | 14.0 | 18.0 | 0.00 | 0.00 | 0.00 | 60 | 1011.8 |
| 20260505200903 | 54 | 15 | 14.0 | 19.0 | 0.00 | 0.00 | 0.00 | 57 | 1012.0 |
| 20260505200217 | 54 | 8 | 14.0 | 19.0 | 0.00 | 0.00 | 0.00 | 57 | 1012.0 |
| 20260505195614 | 54 | 2 | 12.0 | 19.0 | 0.00 | 0.00 | 0.00 | 58 | 1012.0 |
| 20260505194503 | 54 | 354 | 15.0 | 20.0 | 0.00 | 0.00 | 0.00 | 61 | 1012.0 |
| 20260505193813 | 54 | 360 | 15.0 | 20.0 | 0.00 | 0.00 | 0.00 | 59 | 1012.1 |
| 20260505192703 | 54 | 350 | 12.0 | 19.0 | 0.00 | 0.00 | 0.00 | 59 | 1012.1 |
| 20260505192013 | 54 | 9 | 9.0 | 14.0 | 0.00 | 0.00 | 0.00 | 63 | 1012.1 |
| 20260505190904 | 53 | 16 | 7.0 | 11.0 | 0.00 | 0.00 | 0.00 | 66 | 1012.3 |
| 20260505190003 | 53 | 9 | 7.0 | 10.0 | 0.00 | 0.00 | 0.00 | 69 | 1012.2 |
| 20260505185403 | 53 | 356 | 7.0 | 11.0 | 0.00 | 0.00 | 0.00 | 69 | 1012.3 |
| 20260505184503 | 52 | 3 | 5.0 | 9.0 | 0.00 | 0.00 | 0.00 | 71 | 1012.2 |
| 20260505183814 | 52 | 347 | 5.0 | 9.0 | 0.00 | 0.00 | 0.00 | 74 | 1012.3 |
| 20260505182916 | 52 | 273 | 3.0 | 9.0 | 0.00 | 0.00 | 0.00 | 77 | 1012.4 |
| 20260505182014 | 51 | 198 | 1.0 | 3.0 | 0.00 | 0.00 | 0.00 | 78 | 1012.4 |
| 20260505181116 | 51 | 198 | 1.0 | 3.0 | 0.00 | 0.00 | 0.00 | 80 | 1012.4 |
| 20260505180003 | 50 | 197 | 2.0 | 4.0 | 0.00 | 0.00 | 0.00 | 81 | 1012.4 |
| 20260505175403 | 50 | 197 | 2.0 | 4.0 | 0.00 | 0.00 | 0.00 | 82 | 1012.4 |
| 20260505174503 | 50 | 195 | 2.0 | 4.0 | 0.00 | 0.00 | 0.00 | 82 | 1012.6 |
| 20260505173603 | 50 | 195 | 3.0 | 5.0 | 0.00 | 0.00 | 0.00 | 82 | 1012.6 |
| 20260505172704 | 50 | 204 | 4.0 | 6.0 | 0.00 | 0.00 | 0.00 | 82 | 1012.7 |
| 20260505172014 | 50 | 204 | 4.0 | 6.0 | 0.00 | 0.00 | 0.00 | 82 | 1012.8 |
| 20260505171117 | 50 | 185 | 4.0 | 5.0 | 0.00 | 0.00 | 0.00 | 83 | 1012.7 |
| 20260505170214 | 49 | 168 | 5.0 | 7.0 | 0.00 | 0.00 | 0.00 | 84 | 1012.6 |
| 20260505165404 | 49 | 167 | 5.0 | 6.0 | 0.00 | 0.00 | 0.00 | 84 | 1012.4 |
| 20260505164713 | 49 | 173 | 4.0 | 6.0 | 0.00 | 0.00 | 0.00 | 83 | 1012.4 |
| 20260505163815 | 49 | 181 | 4.0 | 6.0 | 0.00 | 0.00 | 0.00 | 83 | 1012.4 |
| 20260505162703 | 49 | 165 | 5.0 | 8.0 | 0.00 | 0.00 | 0.00 | 83 | 1012.5 |
| 20260505161803 | 49 | 180 | 4.0 | 6.0 | 0.00 | 0.00 | 0.00 | 83 | 1012.6 |
| 20260505161117 | 49 | 189 | 4.0 | 5.0 | 0.00 | 0.00 | 0.00 | 83 | 1012.5 |
| 20260505160215 | 49 | 180 | 4.0 | 6.0 | 0.00 | 0.00 | 0.00 | 83 | 1012.5 |
| 20260505152913 | 50 | 132 | 6.0 | 9.0 | 0.00 | 0.00 | 0.00 | 81 | 1011.5 |
| 20260505152015 | 51 | 87 | 11.0 | 18.0 | 0.00 | 0.00 | 0.00 | 76 | 1011.3 |
| 20260505151113 | 51 | 73 | 9.0 | 15.0 | 0.00 | 0.00 | 0.00 | 70 | 1011.4 |
| 20260505150215 | 51 | 72 | 9.0 | 12.0 | 0.00 | 0.00 | 0.00 | 73 | 1011.4 |
| 20260505124715 | 49 | 55 | 4.0 | 6.0 | 0.00 | 0.00 | 0.00 | 76 | 1010.2 |
| 20260505123813 | 49 | 56 | 3.0 | 5.0 | 0.00 | 0.00 | 0.00 | 76 | 1010.3 |
| 20260505122703 | 49 | 52 | 4.0 | 8.0 | 0.00 | 0.00 | 0.00 | 75 | 1009.7 |
| 20260505122012 | 50 | 26 | 4.0 | 8.0 | 0.00 | 0.00 | 0.00 | 75 | 1010.0 |
| 20260505121115 | 50 | 27 | 5.0 | 9.0 | 0.00 | 0.00 | 0.00 | 75 | 1009.6 |
| 20260505120217 | 50 | 37 | 6.0 | 10.0 | 0.00 | 0.00 | 0.00 | 72 | 1009.2 |
| 20260505115614 | 50 | 49 | 7.0 | 11.0 | 0.00 | 0.00 | 0.00 | 71 | 1009.2 |
| 20260505114716 | 50 | 53 | 8.0 | 12.0 | 0.00 | 0.00 | 0.00 | 69 | 1009.3 |
| 20260505113813 | 51 | 56 | 9.0 | 13.0 | 0.00 | 0.00 | 0.00 | 66 | 1009.1 |
| 20260505112916 | 51 | 59 | 9.0 | 14.0 | 0.00 | 0.00 | 0.00 | 66 | 1009.2 |
| 20260505112013 | 50 | 52 | 9.0 | 12.0 | 0.00 | 0.00 | 0.00 | 66 | 1009.3 |
| 20260505110903 | 50 | 41 | 8.0 | 11.0 | 0.00 | 0.00 | 0.00 | 69 | 1009.0 |
| 20260505101803 | 53 | 50 | 13.0 | 18.0 | 0.00 | 0.00 | 0.00 | 54 | 1007.3 |
| 20260505100903 | 53 | 43 | 13.0 | 19.0 | 0.00 | 0.00 | 0.00 | 54 | 1007.6 |
| 20260505100003 | 54 | 36 | 15.0 | 20.0 | 0.00 | 0.00 | 0.00 | 53 | 1007.4 |
| 20260505095615 | 54 | 35 | 15.0 | 20.0 | 0.00 | 0.00 | 0.00 | 54 | 1007.4 |
| 20260505094717 | 54 | 34 | 14.0 | 20.0 | 0.00 | 0.00 | 0.00 | 54 | 1007.6 |
| 20260505093814 | 54 | 35 | 14.0 | 19.0 | 0.00 | 0.00 | 0.00 | 53 | 1007.9 |
| 20260505092703 | 54 | 31 | 15.0 | 21.0 | 0.00 | 0.00 | 0.00 | 53 | 1007.7 |
| 20260505092014 | 54 | 32 | 17.0 | 24.0 | 0.00 | 0.00 | 0.00 | 53 | 1007.8 |
| 20260505090903 | 54 | 37 | 17.0 | 22.0 | 0.00 | 0.00 | 0.00 | 52 | 1007.5 |
| 20260505090003 | 54 | 39 | 14.0 | 21.0 | 0.00 | 0.00 | 0.00 | 53 | 1007.6 |
| 20260505085615 | 54 | 38 | 15.0 | 20.0 | 0.00 | 0.00 | 0.00 | 53 | 1007.3 |
| 20260505084713 | 54 | 36 | 16.0 | 22.0 | 0.00 | 0.00 | 0.00 | 52 | 1007.2 |
| 20260505083815 | 54 | 33 | 19.0 | 28.0 | 0.00 | 0.00 | 0.00 | 51 | 1007.2 |
| 20260505082912 | 54 | 37 | 16.0 | 25.0 | 0.00 | 0.00 | 0.00 | 51 | 1007.0 |
| 20260505081803 | 55 | 40 | 14.0 | 19.0 | 0.00 | 0.00 | 0.00 | 52 | 1007.4 |
| 20260505081112 | 54 | 39 | 13.0 | 19.0 | 0.00 | 0.00 | 0.00 | 52 | 1007.3 |
| 20260505080215 | 54 | 32 | 15.0 | 22.0 | 0.00 | 0.00 | 0.00 | 53 | 1007.1 |
| 20260505075616 | 54 | 26 | 16.0 | 22.0 | 0.00 | 0.00 | 0.00 | 53 | 1007.1 |
| 20260505074504 | 54 | 23 | 20.0 | 25.0 | 0.00 | 0.00 | 0.00 | 53 | 1006.8 |
| 20260505073604 | 54 | 23 | 20.0 | 25.0 | 0.00 | 0.00 | 0.00 | 53 | 1006.9 |
| 20260505072703 | 54 | 23 | 20.0 | 27.0 | 0.00 | 0.00 | 0.00 | 53 | 1006.8 |
| 20260505071803 | 54 | 25 | 19.0 | 25.0 | 0.00 | 0.00 | 0.00 | 53 | 1007.0 |
| 20260505070903 | 54 | 28 | 18.0 | 23.0 | 0.00 | 0.00 | 0.00 | 52 | 1006.9 |
| 20260505070215 | 54 | 25 | 17.0 | 22.0 | 0.00 | 0.00 | 0.00 | 52 | 1006.8 |
| 20260505065403 | 54 | 22 | 20.0 | 26.0 | 0.00 | 0.00 | 0.00 | 51 | 1006.9 |
| 20260505064503 | 55 | 22 | 21.0 | 33.0 | 0.00 | 0.00 | 0.00 | 50 | 1006.8 |
| 20260505063816 | 55 | 23 | 20.0 | 25.0 | 0.00 | 0.00 | 0.00 | 50 | 1006.9 |
| 20260505062703 | 56 | 31 | 21.0 | 29.0 | 0.00 | 0.00 | 0.00 | 48 | 1007.2 |
| 20260505062016 | 56 | 30 | 16.0 | 29.0 | 0.00 | 0.00 | 0.00 | 48 | 1007.1 |
| 20260505060903 | 57 | 20 | 13.0 | 17.0 | 0.00 | 0.00 | 0.00 | 50 | 1007.3 |
| 20260505060216 | 57 | 16 | 15.0 | 20.0 | 0.00 | 0.00 | 0.00 | 49 | 1006.9 |
| 20260505055403 | 57 | 15 | 15.0 | 20.0 | 0.00 | 0.00 | 0.00 | 48 | 1006.7 |
| 20260505054715 | 57 | 13 | 15.0 | 20.0 | 0.00 | 0.00 | 0.00 | 48 | 1006.4 |
| 20260505053603 | 57 | 25 | 17.0 | 22.0 | 0.00 | 0.00 | 0.00 | 48 | 1006.0 |
| 20260505052703 | 58 | 29 | 20.0 | 24.0 | 0.00 | 0.00 | 0.00 | 46 | 1005.7 |
| 20260505051803 | 58 | 24 | 19.0 | 28.0 | 0.00 | 0.00 | 0.00 | 46 | 1005.6 |
| 20260505050903 | 58 | 23 | 24.0 | 32.0 | 0.00 | 0.00 | 0.00 | 45 | 1005.4 |
| 20260505050216 | 59 | 21 | 26.0 | 35.0 | 0.00 | 0.00 | 0.00 | 44 | 1005.1 |